Weather History for Fort Benning, GA

Change the Weather History Date:

Thursday, October 17, 2013

  Actual Average Record
Temperature  
Mean Temperature 68 °F -  
Max Temperature 82 °F 75 °F 88 °F (2011)
Min Temperature 57 °F 49 °F 35 °F (2001)
Cooling Degree Days 3    
Growing Degree Days 18 (Base 50)    
Moisture  
Dew Point 65 °F    
Average Humidity 96    
Maximum Humidity 100    
Minimum Humidity 69    
Precipitation  
Precipitation 0.15 in - - ()
Sea Level Pressure  
Sea Level Pressure 29.94 in    
Wind  
Wind Speed 2 mph (SSW)    
Max Wind Speed 12 mph    
Max Gust Speed -    
Visibility 7 miles    
Events Fog , Rain    
Averages and records for this station are not official NWS values.
T = Trace of Precipitation, MM = Missing Value Source: NWS Daily Summary

Daily Weather History Graph

Daily Weather History Graph

Search for Another Location

Airport:

Trip Planner

Search our weather history database for the weather conditions in past years. The results will help you decide how hot, cold, wet, or windy it might be!

Date:

Astronomy

Oct. 17, 2013 Rise Set
Actual Time 7:45 AM EDT 7:04 PM EDT
Civil Twilight 7:20 AM EDT 7:29 PM EDT
Nautical Twilight 6:51 AM EDT 7:57 PM EDT
Astronomical Twilight 6:23 AM EDT 8:26 PM EDT
Moon 6:16 PM EDT (10/17) 6:20 AM EDT (10/17)
Length of Visible Light 12h 08m
Length of Day
11h 19m
Waxing Gibbous, 98% of the Moon is Illuminated
Oct 17
Waxing Gibbous
Oct 18
Full
Oct 26
Last Quarter
Nov 3
New
Nov 10
First Quarter

Hourly Weather History & Observations

Time (EDT) Temp. Dew Point Humidity Pressure Visibility Wind Dir Wind Speed Gust Speed Precip Events Conditions
12:08 AM 59.0 °F 59.0 °F 100% 29.97 in 7.0 mi Calm Calm - N/A   Clear
12:18 AM 60.8 °F 59.0 °F 94% 29.97 in 9.0 mi Calm Calm - N/A   Clear
12:28 AM 59.0 °F 59.0 °F 100% 29.97 in 7.0 mi Calm Calm - N/A   Clear
12:38 AM 60.8 °F 60.8 °F 100% 29.96 in 3.0 mi Calm Calm - N/A   Clear
12:43 AM 59.0 °F 59.0 °F 100% 29.96 in 0.8 mi Calm Calm - N/A   Clear
12:48 AM 59.0 °F 59.0 °F 100% 29.96 in 0.8 mi Calm Calm - N/A   Clear
12:53 AM 59.0 °F 59.0 °F 100% 29.96 in 1.0 mi Calm Calm - N/A   Clear
12:58 AM 59.4 °F 59.4 °F 100% 29.97 in 0.8 mi SE 2.3 mph - N/A   Clear
1:03 AM 59.0 °F 59.0 °F 100% 29.96 in 1.2 mi SE 2.3 mph - N/A   Clear
1:08 AM 59.0 °F 59.0 °F 100% 29.95 in 1.8 mi SE 2.3 mph - N/A   Clear
1:13 AM 59.0 °F 59.0 °F 100% 29.95 in 2.5 mi SE 2.3 mph - N/A   Clear
1:18 AM 59.0 °F 59.0 °F 100% 29.95 in 3.0 mi SE 1.2 mph - N/A   Clear
1:23 AM 60.8 °F 60.8 °F 100% 29.95 in 5.0 mi Calm Calm - N/A   Clear
1:43 AM 59.0 °F 59.0 °F 100% 29.95 in 2.0 mi ESE 2.3 mph - N/A   Clear
1:48 AM 59.0 °F 59.0 °F 100% 29.95 in 1.0 mi Calm Calm - N/A   Clear
1:53 AM 59.0 °F 59.0 °F 100% 29.95 in 1.2 mi Calm Calm - N/A   Clear
1:58 AM 59.0 °F 59.0 °F 100% 29.96 in 2.5 mi ESE 1.2 mph - N/A   Clear
2:03 AM 59.0 °F 59.0 °F 100% 29.95 in 6.0 mi East 1.2 mph - N/A   Clear
2:23 AM 59.0 °F 59.0 °F 100% 29.96 in 1.5 mi Calm Calm - N/A   Clear
2:28 AM 59.0 °F 59.0 °F 100% 29.96 in 0.5 mi Calm Calm - N/A Fog Fog
2:38 AM 59.0 °F 59.0 °F 100% 29.95 in 0.8 mi Calm Calm - N/A   Clear
2:43 AM 59.0 °F 59.0 °F 100% 29.95 in 0.5 mi Calm Calm - N/A Fog Fog
2:58 AM 58.3 °F 58.3 °F 100% 29.96 in 0.5 mi Calm Calm - N/A Fog Fog
3:03 AM 59.0 °F 59.0 °F 100% 29.95 in 0.8 mi ESE 2.3 mph - N/A   Clear
3:08 AM 59.0 °F 59.0 °F 100% 29.95 in 2.0 mi ESE 2.3 mph - N/A   Clear
3:13 AM 59.0 °F 59.0 °F 100% 29.95 in 2.0 mi SE 2.3 mph - N/A   Partly Cloudy
3:23 AM 59.0 °F 59.0 °F 100% 29.95 in 4.0 mi Calm Calm - N/A   Mostly Cloudy
3:28 AM 59.0 °F 59.0 °F 100% 29.94 in 6.0 mi Calm Calm - N/A   Mostly Cloudy
3:43 AM 59.0 °F 59.0 °F 100% 29.94 in 10.0 mi ESE 2.3 mph - N/A   Overcast
3:58 AM 59.4 °F 59.4 °F 100% 29.95 in 10.0 mi Calm Calm - N/A   Overcast
4:58 AM 60.3 °F 60.1 °F 99% 29.95 in 10.0 mi Calm Calm - N/A   Mostly Cloudy
5:58 AM 60.1 °F 60.1 °F 100% 29.96 in 10.0 mi Calm Calm - N/A   Scattered Clouds
6:03 AM 60.8 °F 60.8 °F 100% 29.95 in 9.0 mi Calm Calm - N/A   Mostly Cloudy
6:13 AM 59.0 °F 59.0 °F 100% 29.94 in 9.0 mi SE 3.5 mph - N/A   Scattered Clouds
6:33 AM 59.0 °F 59.0 °F 100% 29.95 in 7.0 mi SE 2.3 mph - N/A   Partly Cloudy
6:53 AM 59.0 °F 59.0 °F 100% 29.95 in 3.0 mi SE 3.5 mph - N/A   Clear
6:58 AM 58.1 °F 58.1 °F 100% 29.96 in 3.0 mi SE 3.5 mph - N/A   Clear
7:08 AM 57.2 °F 57.2 °F 100% 29.95 in 8.0 mi SE 4.6 mph - N/A   Partly Cloudy
7:10 AM 59.0 °F 59.0 °F 100% 29.95 in 5.0 mi SSE 4.6 mph - N/A   Mostly Cloudy
7:28 AM 59.0 °F 59.0 °F 100% 29.96 in 10.0 mi SE 4.6 mph - N/A   Mostly Cloudy
7:58 AM 59.4 °F 59.4 °F 100% 29.97 in 10.0 mi SE 3.5 mph - N/A   Mostly Cloudy
8:58 AM 64.8 °F 64.4 °F 99% 29.98 in 10.0 mi Calm Calm - N/A   Overcast
9:58 AM 72.0 °F 66.7 °F 84% 29.99 in 10.0 mi SSW 3.5 mph - N/A   Mostly Cloudy
10:58 AM 75.4 °F 69.1 °F 81% 29.99 in 10.0 mi SW 4.6 mph - N/A   Overcast
11:43 AM 77.0 °F 69.8 °F 78% 29.97 in 10.0 mi SSW 6.9 mph - N/A   Overcast
11:58 AM 77.5 °F 70.0 °F 77% 29.98 in 10.0 mi Variable 6.9 mph - N/A   Overcast
12:18 PM 78.8 °F 69.8 °F 74% 29.96 in 10.0 mi SW 11.5 mph - N/A   Overcast
12:58 PM 79.7 °F 69.3 °F 70% 29.96 in 10.0 mi SW 9.2 mph - N/A   Mostly Cloudy
1:58 PM 79.5 °F 69.1 °F 70% 29.93 in 10.0 mi SSW 8.1 mph - N/A   Overcast
2:58 PM 79.5 °F 68.7 °F 69% 29.90 in 10.0 mi SW 8.1 mph - N/A   Overcast
3:47 PM 78.8 °F 69.8 °F 74% 29.89 in 10.0 mi SW 4.6 mph - N/A Rain Light Rain
3:57 PM 77.0 °F 69.8 °F 78% 29.88 in 10.0 mi WSW 3.5 mph - N/A   Light Drizzle
3:58 PM 77.7 °F 69.4 °F 76% 29.89 in 10.0 mi West 3.5 mph - 0.00 in   Light Drizzle
4:03 PM 77.0 °F 69.8 °F 78% 29.88 in 10.0 mi Variable 4.6 mph - N/A Rain Light Rain
4:08 PM 77.0 °F 71.6 °F 83% 29.89 in 8.0 mi West 4.6 mph - N/A Rain Light Rain
4:23 PM 75.2 °F 71.6 °F 89% 29.89 in 6.0 mi NNW 6.9 mph - N/A Rain Light Rain
4:45 PM 73.4 °F 73.4 °F 100% 29.89 in 10.0 mi NW 8.1 mph - N/A   Scattered Clouds
4:50 PM 73.4 °F 73.4 °F 100% 29.89 in 10.0 mi NW 5.8 mph - N/A Rain Light Rain
4:58 PM 73.0 °F 72.7 °F 99% 29.91 in 8.0 mi NW 5.8 mph - 0.04 in Rain Light Rain
5:13 PM 71.6 °F 71.6 °F 100% 29.90 in 10.0 mi WNW 5.8 mph - N/A Rain Light Rain
5:18 PM 71.6 °F 71.6 °F 100% 29.90 in 10.0 mi WNW 4.6 mph - N/A Rain Light Rain
5:23 PM 71.6 °F 71.6 °F 100% 29.90 in 9.0 mi WNW 5.8 mph - N/A Rain Light Rain
5:55 PM 71.6 °F 71.6 °F 100% 29.91 in 8.0 mi Calm Calm - N/A   Drizzle
6:06 PM 71.6 °F 71.6 °F 100% 29.91 in 10.0 mi NW 1.2 mph - N/A   Overcast
6:36 PM 71.6 °F 71.6 °F 100% 29.90 in 10.0 mi Variable 1.2 mph - N/A   Mostly Cloudy
6:58 PM 71.2 °F 71.2 °F 100% 29.92 in 10.0 mi East 1.2 mph - 0.00 in   Mostly Cloudy
7:18 PM 71.6 °F 71.6 °F 100% 29.90 in 10.0 mi ESE 2.3 mph - N/A   Overcast
7:43 PM 69.8 °F 69.8 °F 100% 29.90 in 10.0 mi SSE 3.5 mph - N/A   Overcast
7:48 PM 69.8 °F 69.8 °F 100% 29.91 in 10.0 mi South 2.3 mph - N/A   Overcast
7:58 PM 70.7 °F 70.7 °F 100% 29.92 in 10.0 mi SSE 2.3 mph - N/A   Overcast
8:43 PM 69.8 °F 69.8 °F 100% 29.92 in 9.0 mi Calm Calm - N/A   Overcast
8:58 PM 70.7 °F 70.7 °F 100% 29.93 in 8.0 mi Calm Calm - N/A   Mostly Cloudy
9:03 PM 71.6 °F 71.6 °F 100% 29.92 in 7.0 mi Calm Calm - N/A   Mostly Cloudy
9:13 PM 69.8 °F 69.8 °F 100% 29.92 in 5.0 mi Calm Calm - N/A   Mostly Cloudy
9:14 PM 69.8 °F 69.8 °F 100% 29.92 in 5.0 mi Calm Calm - N/A   Light Drizzle
9:24 PM 69.8 °F 69.8 °F 100% 29.92 in 3.0 mi Calm Calm - N/A Rain Rain
9:29 PM 69.8 °F 69.8 °F 100% 29.93 in 2.0 mi WNW 2.3 mph - N/A Rain Rain
9:36 PM 69.8 °F 69.8 °F 100% 29.93 in 2.0 mi WNW 5.8 mph - N/A Rain Heavy Rain
9:41 PM 69.8 °F 69.8 °F 100% 29.93 in 3.0 mi NW 8.1 mph - N/A Rain Rain
9:46 PM 69.8 °F 69.8 °F 100% 29.93 in 6.0 mi NW 8.1 mph - N/A Rain Light Rain
9:51 PM 68.0 °F 68.0 °F 100% 29.93 in 10.0 mi NW 5.8 mph - N/A Rain Light Rain
9:58 PM 68.7 °F 68.7 °F 100% 29.94 in 10.0 mi NW 5.8 mph - 0.10 in   Light Drizzle
10:03 PM 68.0 °F 68.0 °F 100% 29.93 in 8.0 mi NW 3.5 mph - N/A   Drizzle
10:16 PM 68.0 °F 68.0 °F 100% 29.93 in 9.0 mi West 2.3 mph - N/A   Overcast
10:21 PM 68.0 °F 68.0 °F 100% 29.93 in 10.0 mi Calm Calm - N/A   Overcast
10:26 PM 68.0 °F 68.0 °F 100% 29.93 in 9.0 mi West 2.3 mph - N/A   Overcast
10:31 PM 69.8 °F 69.8 °F 100% 29.94 in 8.0 mi West 2.3 mph - N/A   Light Drizzle
10:46 PM 69.8 °F 69.8 °F 100% 29.93 in 8.0 mi Calm Calm - N/A   Overcast
10:58 PM 68.9 °F 68.9 °F 100% 29.95 in 7.0 mi West 2.3 mph - 0.00 in   Overcast
11:13 PM 69.8 °F 69.8 °F 100% 29.94 in 10.0 mi WNW 3.5 mph - N/A   Overcast
11:58 PM 68.9 °F 68.9 °F 100% 29.95 in 10.0 mi NW 6.9 mph - 0.01 in   Overcast